Other Public Products
Issued by NWS Grand Forks, ND

Home | Current Version | Previous Version | Graphics & Text | Print | Product List | Glossary On
Versions: 1 2 3 4 5 6 7 8 9 10 11 12 13 14 15 16 17 18 19 20 21 22 23 24 25 26 27 28 29 30 31 32 33 34 35 36 37 38 39 40 41 42 43 44 45 46 47 48 49 50
000
FPUS83 KFGF 010510
OPUFGF
PRAIRIE TO PINES WEATHER ROUNDUP
NATIONAL WEATHER SERVICE EASTERN NORTH DAKOTA/GRAND FORKS ND
1100 PM CST SAT FEB 28 2015

 **SATELLITE DATA USED TO AUGMENT SKY COVER AT AUTOMATED STATIONS**
 *****  WEATHER ACROSS EASTERN NORTH DAKOTA  *****

CITY           SKY/WX    TMP DP  RH WIND       PRES   REMARKS
GRAND FORKS    CLEAR      5  -2  72 W9        30.17R WCI  -9
GRAND FORKS AF CLEAR      5  -2  71 W6        30.16S WCI  -5
GRAND CITY NWS   N/A      5 N/A N/A W12         N/A  WCI -11
BUXTON         NOT AVBL
DEVILS LAKE    CLEAR      3  -2  78 W13       30.13S WCI -14
FARGO          CLEAR      7   0  73 W6        30.21S WCI  -3
WAHPETON ARPT  CLOUDY    14   9  79 NW14      30.23R WCI  -1
$$

 *****  WEATHER ACROSS CENTRAL AND WESTERN NORTH DAKOTA  *****

CITY           SKY/WX    TMP DP  RH WIND       PRES   REMARKS
JAMESTOWN      CLEAR      2  -3  80 W7        30.18R WCI -11
BISMARCK       CLEAR      6   1  80 SW7       30.21S WCI  -6
MINOT          CLEAR      3  -3  76 SW10      30.13S WCI -12
MINOT AFB      CLEAR     -2  -6  84 W12       30.13S WCI -20
GARRISON         N/A     -3  -7  82 W6        30.15R WCI -15
WILLISTON      PTCLDY     5  -1  76 CALM      30.15S
DICKINSON      CLEAR      6   0  76 W9        30.12R WCI  -8
HETTINGER      PTCLDY     5   0  79 W3        30.17R
$$

 *****  OTHER OBSERVATIONS NORTHEAST NORTH DAKOTA  *****

CITY           SKY/WX    TMP DP  RH WIND       PRES   REMARKS
WALHALLA         N/A      7   0  72 W16G24    30.11S WCI -11
LANGDON        NOT AVBL
CAVALIER       FAIR       9   1  72 W13       30.12S WCI  -7
GRAFTON        NOT AVBL
CANDO          FAIR       0  -4  85 W12       30.12F WCI -18
FORT TOTTEN      N/A      3  -3  77 W5        29.95S WCI  -6
ROLLA          FAIR       5   0  78 W14       30.07S WCI -12
RUGBY          FAIR       0  -4  85 SW9       30.13F WCI -16
 ***** THE ABOVE OBSERVATIONS ARE NON NWS ARE NOT QUALITY
        CONTROLLED AND MAY MIS-REPORT RAIN FOR SNOW...
$$

 *****  OTHER OBSERVATIONS SOUTHEAST NORTH DAKOTA *****

CITY           SKY/WX    TMP DP  RH WIND       PRES   REMARKS
COOPERSTOWN    NOT AVBL
VALLEY CITY    FAIR       5   0  78 W13       30.18R WCI -12
OAKES            N/A      3   0  85 W12       30.21S WCI -13
GWINNER        CLEAR     10   3  72 W10       30.21F WCI  -3
SHEYENNE NWR     N/A      6  -2  71 W7        29.95  WCI  -6
BUFFALO        NOT AVBL
WYNDMERE         N/A      9   1  72 NW9         N/A  WCI  -5
 ***** THE ABOVE OBSERVATIONS ARE NON NWS ARE NOT QUALITY
       CONTROLLED AND MAY MIS-REPORT RAIN FOR SNOW...
$$

  *****  WEATHER ACROSS NORTHERN MINNESOTA  *****

CITY           SKY/WX    TMP DP  RH WIND       PRES   REMARKS
FLAG ISLAND    LGT SNOW  18  14  86 SW9       30.03S WCI   6
WARROAD        LGT SNOW  14  10  85 W10G17    30.07R WCI   1
ROSEAU         CLEAR     12   5  73 W8        30.08S WCI   1
HALLOCK        NOT AVBL
THF RVR FALLS  CLOUDY     7   1  78 SW8       30.13R WCI  -6
HALSTAD        NOT AVBL
FOSSTON        MOCLDY     7   1  78 SW8       30.15R WCI  -6
BAUDETTE       CLOUDY    18  12  77 SW14      30.04S WCI   4
WASKISH        LGT SNOW  18  16  93 CALM      30.09R
CROOKSTON      PTCLDY     7   1  78 W9        30.18R WCI  -7
$$
  *****  WEATHER ACROSS CENTRAL AND WEST MINNESOTA  *****

CITY           SKY/WX    TMP DP  RH WIND       PRES   REMARKS
BEMIDJI        LGT SNOW  17  13  86 SW8       30.10S WCI   6
PARK RAPIDS    LGT SNOW  17  13  84 SW10      30.12S FOG     WCI   5
WADENA         FLURRIES  14  10  85 S6        30.15S WCI   5
DETROIT LAKES  FLURRIES  14  10  85 NW13      30.17R WCI   0
MOORHEAD       CLEAR      9   3  78 W3        30.22R
FERGUS FALLS   FLURRIES  16   9  73 NW10      30.24R WCI   3
ELBOW LAKE     FLURRIES  17  14  88 S9        30.18S WCI   6
MORRIS MN      LGT SNOW  19  14  79 S8        30.18F WCI   9
STAPLES        LGT SNOW  14  10  85 S9        30.17S WCI   2
WHEATON        NOT AVBL
$$
  *****  WEATHER ELSEWHERE ACROSS MINNESOTA  *****

CITY           SKY/WX    TMP DP  RH WIND       PRES   REMARKS
DULUTH         MOCLDY    12   1  61 SW12      30.19F WCI  -2
INTRNTL FALLS  LGT SNOW  17  11  77 S10       30.07F WCI   5
ELY            NOT AVBL
CLOQUET        FAIR      10   1  67 S10       30.20F WCI  -3
BRAINERD       CLOUDY    13   8  81 S10       30.19F WCI   0
HIBBING        CLOUDY    13   5  70 S6        30.15F WCI   4
ALEXANDRIA     CLOUDY    17  12  80 S14       30.17F WCI   3
SAINT CLOUD    CLOUDY    13   7  77 S14       30.25F WCI  -2
MINNEAPOLIS    CLOUDY    13   4  67 S7        30.32F WCI   3
$$

  *****  WEATHER ACROSS SOUTH DAKOTA  *****

CITY           SKY/WX    TMP DP  RH WIND       PRES   REMARKS
SIOUX FALLS    CLEAR     18  12  77 SW14      30.23R WCI   4
BROOKINGS      NOT AVBL
WATERTOWN      MOCLDY    16  11  80 N12       30.18R WCI   3
HURON          PTCLDY    11   7  84 NW12      30.25R WCI  -3
SISSETON         N/A     14   8  77 N14       30.22R WCI  -1
ABERDEEN       PTCLDY     9   3  77 NW6       30.25R WCI  -1
MITCHELL       CLEAR     17  13  84 NW7       30.26R WCI   8
PIERRE         PTCLDY    13   5  70 NW6       30.24R WCI   4
MOBRIDGE       PTCLDY     5   2  87 CALM      30.19R
RAPID CITY     CLOUDY    12   7  80 NW3       30.18R
$$

  *****  SOME WEATHER IN NEARBY STATES *****

CITY           SKY/WX    TMP DP  RH WIND       PRES   REMARKS
GLASGOW MT     CLOUDY    19  10  68 NW10      30.15R WCI   7
GREAT FALLS MT FAIR      11   7  84 SW9       30.19R WCI  -2
CHEYENNE WY    CLOUDY    18  11  74 CALM      29.95S
SCOTTSBLUFF NE MOCLDY    21  13  71 E8        30.09R WCI  11
OMAHA NE       FLURRIES  23  17  78 S9        30.36F WCI  13
DES MOINES IA  FLURRIES  21  17  84 SE7       30.38F WCI  12
DAVENPORT IA   MOCLDY    11   7  84 SE8       30.43F FOG     WCI  -1
CHICAGO IL     FLURRIES  17  13  84 S7        30.47F WCI   8
EAU CLAIRE WI  CLOUDY    12  -1  56 S8        30.36F WCI   0
LA CROSSE WI   PTCLDY    14   0  53 S7        30.42F WCI   4
$$

  *****  SOME NATIONAL WEATHER *****

CITY           SKY/WX    TMP DP  RH WIND       PRES   REMARKS
LA GUARDIA NY  PTCLDY    27   2  34 CALM      30.73F
RALEIGH NC     PTCLDY    29  15  56 E5        30.68F WCI  24
ATLANTA GA     LGT RAIN  44  33  65 E13       30.55R
NEW ORLEANS LA PTCLDY    56  52  86 E10       30.34S
OKLAHOMA CITY  FRZ DRZL  28  24  85 E5        30.31F FOG     WCI  23
ALBUQUERQUE NM CLOUDY    33  30  88 NE6       30.00R
SALT LAKE CITY CLOUDY    35  33  92 SW5       29.90R
LOS ANGELES CA LGT RAIN  55  47  74 S8        29.90R
BOISE ID       MOCLDY    34  26  72 SW5       29.97R
SEATTLE WA     FAIR      44  26  49 N6        30.22R
$$

*** WEATHER ACROSS MANITOBA...SASKATCHEWAN AND ONTARIO ***
                ***ONTARIO***

CITY           SKY/WX    TMP DP  RH WIND       PRES   REMARKS
GERALDTON      PTCLDY    14   5  67 S12G20    30.14F WCI   0
THUNDER BAY    CLOUDY    18   3  53 SW8       30.20F WCI   7
SIOUX LOOKOUT  CLOUDY    16   1  53 S8        30.01F WCI   5
TORONTO        CLOUDY    10   0  61 W2        30.60F
BIG TROUT LK   CLEAR      5   0  78 SW7       29.88F WCI  -7
PICKLE LAKE    NOT AVBL
DRYDEN         MOCLDY    18   7  62 SW13G21   30.00F WCI   4
KENORA         FLURRIES  16  12  86 W13       30.00S WCI   2
$$
                *** MANITOBA***

CITY           SKY/WX    TMP DP  RH WIND       PRES   REMARKS
BRANDON        CLEAR     -2  -6  84 W13       30.07F WCI -21
DAUPHIN        CLEAR      9   1  72 W21       30.02S WCI -11
ISLAND LAKE    PTCLDY    12   1  62 SW8       29.90S WCI   1
PILOT MOUND      N/A      3  -2  78 W9          N/A  WCI -11
THE PAS        PTCLDY     9   5  85 NW8       30.00R WCI  -4
THOMPSON       CLEAR      5   1  85 NW8       29.92R WCI  -8
WINNIPEG       CLEAR      3  -4  72 W10       30.07S WCI -12
LYNN LAKE      CLEAR     -2  -9  71 NW8       29.96R WCI -17
CHURCHILL      PTCLDY   -11 -18  70 NW22G30   29.90S WCI -38
GILLAM         FLURRIES   3   0  85 NE7       29.88R WCI  -9
$$
                ***SASKATCHEWAN***

CITY           SKY/WX    TMP DP  RH WIND       PRES   REMARKS
ESTEVAN        PTCLDY     5   0  78 W12       30.09S WCI -11
KINDERSLEY     MOCLDY    16  10  79 NW13      30.13R WCI   2
LLOYDMINSTER   CLEAR     16  10  79 NW10      30.14R WCI   3
PRINCE ALBERT  FLURRIES  14  10  85 NW9       30.09R WCI   2
REGINA         FLURRIES  10   7  85 W12       30.07R WCI  -4


USA.gov is the U.S. government's official web portal to all federal, state and local government web resources and services.